STARLINK-5249 (54205 NORAD) Tracking and Keplerian Element Data

This shows tracking and keplerian element data for the satellite.

Feedback or suggestion? Click here.




ElementValue
Catalog54205
NameSTARLINK-5249
Epoch Orbit407
Epoch Day325.25001157
Epoch Year2022
RAAN24.0729
Inclination53.2177
Eccentricity0.0002905
Argument of Perigee19.5366
Mean Anonmoly19.1807
Mean Motion15.73187791
Decay Rate0.0003196
L11 54205U 22141BA 22325.25001157 .00031960 00000+0 23136-3 0 9997
L22 54205 53.2177 24.0729 0002905 19.5366 19.1807 15.73187791 4079



Live tracking and technical data element details for STARLINK-5249 (NORAD 54205). STARLINK-5249 can be tracked NOW for your location showing map with azimuth and elevation plus other details from your city location.







IsCatalogInMostPopularTable: catalog: 54205, numindb: 7
Update: records affected: 1



GetName: 54205 STARLINK-5249

Hit Count: updated at: Fri, 09 Dec 2022 18:49:25 GMT